Regional Weather Roundup
Issued by NWS Cleveland, OH

Home | Current Version | Previous Version | Text Only | Print | Product List | Glossary Off
Versions: 1 2 3 4 5 6 7 8 9 10 11 12 13 14 15 16 17 18 19 20 21 22 23 24 25 26 27 28 29 30 31 32 33 34 35 36 37 38 39 40 41 42 43 44 45 46 47 48 49 50

000
ASUS41 KCLE 250500
RWRCLE
OHIO REGIONAL WEATHER ROUNDUP
NATIONAL WEATHER SERVICE WILMINGTON, OH
100 AM EDT SAT OCT 25 2014

NOTE: "FAIR" INDICATES FEW OR NO CLOUDS BELOW 12,000 FEET WITH NO
SIGNIFICANT WEATHER AND/OR OBSTRUCTIONS TO VISIBILITY.

OHZ001>008-015>018-024>027-034-035-043-044-250600-
   NORTHWEST OHIO

CITY           SKY/WX    TMP DP  RH WIND       PRES   REMARKS
DEFIANCE       MOCLDY    49  46  90 SW6       29.97F FOG
FINDLAY        PTCLDY    47  42  83 S6        29.97F
TOLEDO EXPRESS PTCLDY    46  44  93 CALM      29.96F FOG
TOLEDO METCALF PTCLDY    47  42  83 S5        29.97F
LIMA           PTCLDY    53  45  74 SW6       29.99F
$$

OHZ009>014-019>023-028>033-038-089-250600-
   NORTHEAST OHIO

CITY           SKY/WX    TMP DP  RH WIND       PRES   REMARKS
CLE-HOPKINS    CLOUDY    51  43  74 SW5       30.00F
CLE-LAKEFRONT  CLOUDY    55  44  66 SW5       29.97F
CUY CO. ARPT   NOT AVBL
LORAIN-ELYRIA  CLOUDY    51  44  77 SW7       29.98F
ASHTABULA      MOCLDY    49  43  80 S3        29.97F
AKRON-CANTON   PTCLDY    51  38  60 SW5       30.00S
WOOSTER        NOT AVBL
MANSFIELD      MOCLDY    48  39  71 SW5       30.00F
YOUNGSTOWN     CLOUDY    49  41  74 SW3       29.99S
$$

OHZ042-051>053-060>062-070>072-077>081-250600-
  SOUTHWEST OHIO

CITY           SKY/WX    TMP DP  RH WIND       PRES   REMARKS
CINC-COVINGTON MOCLDY    51  42  71 CALM      30.05S
CINC-LUNKEN    CLEAR     42  41  96 CALM      30.06F
HAMILTON       CLEAR     42  40  92 CALM      30.05F
DAYTON         NOT AVBL
WRIGHT-PAT AFB PTCLDY    46  41  85 SE2       30.02F
DAYTON GENERAL PTCLDY    51  40  65 S3        30.03F
WILMINGTON     MOCLDY    47  38  71 SW3       30.04S
$$

OHZ036-037-039>041-045>050-054>059-063>069-073>076-082>088-250600-
  CENTRAL AND SOUTHEAST OHIO

CITY           SKY/WX    TMP DP  RH WIND       PRES   REMARKS
COLUMBUS       MOCLDY    45  40  82 CALM      30.02F
OSU AIRPORT    PTCLDY    49  38  65 SW3       30.01F
BOLTON FIELD   NOT AVBL
RICKENBACK AFB NOT AVBL
NEWARK         CLEAR     39  36  89 CALM      30.02F FOG
MARION         MOCLDY    50  40  68 SW5       30.00F
LANCASTER      CLEAR     40  37  89 SE3       30.02F
ZANESVILLE     CLEAR     41  37  86 CALM      30.02S
NEW PHILLY     CLEAR     44  40  85 SE3       30.02R
$$



USA.gov is the U.S. government's official web portal to all federal, state and local government web resources and services.